Regional Weather Roundup
Issued by NWS Upton, NY

Current Version | Previous Version | Graphics & Text | Print | Product List | Glossary Off
Versions: 1 2 3 4 5 6 7 8 9 10 11 12 13 14 15 16 17 18 19 20 21 22 23 24 25 26 27 28 29 30 31 32 33 34 35 36 37 38 39 40 41 42 43 44 45 46 47 48 49 50

000
ASUS41 KOKX 210705
RWROKX

REGIONAL WEATHER ROUNDUP
NATIONAL WEATHER SERVICE NEW YORK NY
200 AM EST FRI NOV 21 2014

NOTE: "FAIR" INDICATES FEW OR NO CLOUDS BELOW 12,000 FEET WITH NO
SIGNIFICANT WEATHER AND/OR OBSTRUCTIONS TO VISIBILITY.

NYZ071-072-176-178-NJZ106-104-210800-
NEW YORK CITY METRO AREA


CITY           SKY/WX    TMP DP  RH WIND       PRES   REMARKS
CENTRAL PARK   CLEAR     30   6  36 W13G20    30.07R WCI  20
LAGUARDIA APRT CLEAR     30   9  41 W18G25    30.06R WCI  18
KENNEDY INTL   CLEAR     30   6  36 NW14G23   30.07R WCI  19
NEWARK/LIBERTY CLEAR     28   7  41 W13       30.07R WCI  17
BRNX BOT. GARD   N/A    N/A N/A N/A W25       30.05F
TETERBORO      CLEAR     29   7  39 W8        30.06R WCI  21
$$

NYZ177-179-078>081-210800-
LONG ISLAND NEW YORK

CITY           SKY/WX    TMP DP  RH WIND       PRES   REMARKS
FARMINGDALE    CLEAR     30   7  37 W12G23    30.04R WCI  20
ISLIP          CLEAR     30   9  41 W14G20    30.01R WCI  19
SHIRLEY        CLEAR     31  11  43 NW17G25   30.03R WCI  19
WESTHAMPTON    CLEAR     30  11  45 W9        30.02R WCI  22
MONTAUK POINT    N/A     36  14  40 W14G23    29.98R WCI  27
$$

NYZ052-065-067-210800-
HUDSON VALLEY

CITY           SKY/WX    TMP DP  RH WIND       PRES   REMARKS
WHITE PLAINS   CLEAR     28   6  39 W18G30    30.01R WCI  15
NEWBURGH       NOT AVBL
MONTGOMERY     CLEAR     26   6  42 W6        30.02R WCI  19
POUGHKEEPSIE   CLEAR     28   7  41 W10       30.03R WCI  19
ALBANY         PTCLDY    22  13  68 W3        29.98R
$$

NJZ001-105-106-008-010-013-015-019>022-104-210800-
NEW JERSEY

CITY           SKY/WX    TMP DP  RH WIND       PRES   REMARKS
NEWARK/LIBERTY CLEAR     28   7  41 W13       30.07R WCI  17
TETERBORO      CLEAR     29   7  39 W8        30.06R WCI  21
CALDWELL       CLEAR     28   6  39 W7        30.07R WCI  21
MORRISTOWN       N/A     30   7  37 W7        30.06R WCI  23
SOMERVILLE     CLEAR     28   8  43 MISG      30.07R
SUSSEX         CLEAR     25   8  48 CALM      30.04R
ANDOVER          N/A     25   7  46 VRB3      30.05R
TRENTON        CLEAR     28   7  41 NW10      30.09R WCI  19
MILLVILLE      CLEAR     30  11  45 NW9       30.12R WCI  22
ATLANTIC CITY  CLEAR     28  11  48 NW10      30.11R WCI  19
WRIGHTSTOWN    CLEAR     29   7  40 NW12G20   30.09R WCI  19
TOMS RIVER     CLEAR     28   9  43 CALM      30.10R
BELMAR         CLEAR     28   7  40 W13G20    30.08R WCI  18
$$

PAZ047>061-062-071-210800-
EASTERN PENNSYLVANIA

CITY           SKY/WX    TMP DP  RH WIND       PRES   REMARKS
PHILADELPHIA   CLEAR     31   9  39 W12       30.14R WCI  22
ALLENTOWN      CLEAR     26   7  44 W9        30.09R WCI  17
SCRANTON       PTCLDY    22   8  55 W7        30.04R WCI  13
$$

CTZ002-004>006-009-010-012-RIZ004-006-007-MAZ004-011-015-210800-
SOUTHERN NEW ENGLAND
 IN CT

CITY           SKY/WX    TMP DP  RH WIND       PRES   REMARKS
BRADLEY INTL   CLEAR     27  15  61 W3        29.97R
HARTFORD       CLEAR     29  15  56 SW9       29.99R WCI  20
DANBURY        CLEAR     28   5  37 W13G24    30.01R WCI  17
WTRBRY/OXFORD  CLEAR     27   3  36 W8        29.98R WCI  18
BRIDGEPORT     CLEAR     31   8  38 W16       30.02R WCI  20
MERIDEN        FAIR      30   7  37 W7G17     30.00R WCI  23
NEW HAVEN      CLEAR     34  10  37 NW9G22    30.00R WCI  27
CHESTER        FAIR      30  10  43 NW8       29.97R WCI  23
GROTON         PTCLDY    30  13  49 NW8       29.98R WCI  22
WILLIMANTIC    PTCLDY    27  18  69 CALM      29.98R

 IN RI

CITY           SKY/WX    TMP DP  RH WIND       PRES   REMARKS
PROVIDENCE     MOCLDY    31  17  56 W8        29.96R WCI  23
BLOCK ISLAND   CLOUDY    34  18  51 NW15G21   29.95S WCI  24
WESTERLY       PTCLDY    30  19  63 CALM      29.98R

 IN MA

CITY           SKY/WX    TMP DP  RH WIND       PRES   REMARKS
BOSTON         PTCLDY    30  15  53 W13       29.95R WCI  20
WORCESTER      CLEAR     24  13  62 W12       29.90R WCI  13
WESTFIELD      FAIR      28  11  48 W9        29.96R WCI  19
PROVINCETOWN   MOCLDY    36  18  48 NW28G33   29.93R WCI  23
NANTUCKET      CLOUDY    37  18  46 NW21G29   29.92R WCI  26
$$

ANZ330-335-338-340-345-350-353-355-210800-
COASTAL MARINE OBSERVATIONS


STATION/POSITION TIME  SKY/WX   TEMP    WIND        PRES    VSBY  WAVE
                                AIR SEA DIR/SP/G                  HT/PER
                 (UTC)          (F)     (DEG/KT/KT) (MB)    (MI)  (FT/S)
NY HARB ENTRANCE 0700            34 57  300/ 25/ 31 1017.6          4/ 5
4S FIRE IS       0700               53                N/A           5/ 8
20S FIRE ISLAND  0700            36 54  310/ 25/ 31 1016.6          7/ 6
23SW MTP         0700                                 N/A           7/ 8
HUDSON CANYON    0700            39 59  300/ 25/ 31 1015.8         10/ 7
EXECUTION ROCKS  0700            32 48  290/ 16/ 23   N/A
WESTERN LI SOUND 0700            33     280/ 17/ 23   N/A           2/ 2
CENTRAL LI SOUND 0700            35 52  280/ 21/ 25   N/A           4/ 4
EASTERN LI SOUND 0600            37 53  290/ 17/ 25   N/A
ROBBINS REEF     0700            30     290/ 14/ 17 1016.9
$$


>>>>>>>>>>>>>>>>>>>>>>>>>>>> KEY <<<<<<<<<<<<<<<<<<<<<<<<<<<
>                                                          <
>     SKY/WX - SKY CONDITION/PRESENT WEATHER               <
>     TMP    - TEMPERATURE IN FAHRENHEIT                   <
>     DP     - DEWPOINT IN FAHRENHEIT                      <
>     RH     - RELATIVE HUMIDITY IN PERCENT                <
>     WIND   - DIRECTION AND SPEED IN MPH                  <
>     PRES   - MEAN SEA LEVEL PRESSURE IN INCHES OF HG     <
>     WCI    - WIND CHILL INDEX                            <
>     VSB    - VISIBILITY IN MILES                         <
>     HX     - HEAT INDEX                                  <
>     TC     - TEMPERATURE IN CELSIUS                      <
>     VRB    - VARIABLE WIND DIRECTION                     <
>                                                          <
>>>>>>>>>>>>>>>>>>>>>>>>>>>> KEY <<<<<<<<<<<<<<<<<<<<<<<<<<<





USA.gov is the U.S. government's official web portal to all federal, state and local government web resources and services.